THORAD AGENA D DEB, 19150

Orbit data source: Space-Track

THORAD AGENA D DEB, 19150 is space debris in SSO originally from a launch on Wed, 08 Apr 1970 UTC launched from the Air Force Western Test Range (AFWTR). Debris objects in space refer to the collection of defunct objects orbiting the Earth. Examples of debris include non-operational satellites, rocket bodies, and fragments generated from explosions, collisions, or faulty payload assembly.

Loading next visibility...
Identifier
19150, 1970-025PS
Orbit
SSO
Country
Flag of USUS
Related business
Manufacturer
Unknown
Mission
Spacecraft
Bus & Motor
Unknown
Mass
Unknown
Launch date (UTC)
1970-04-08 (56 years ago)
Launch vehicle
Unknown
Launch site
Air Force Western Test Range (AFWTR)
Object type
Payload
Rocket body
Debris
Shape & HBR
Unknown shape, 0.1 m
Radar Cross Section
Small (<0.1 m²)

Expand to show TLE details & history
Last TLE update: 17 hours ago

TLE from 17 hours ago
0 THORAD AGENA D DEB
1 19150U 70025PS  25294.18244787  .00015201  00000-0  71763-2 0  9998
2 19150 100.3425 197.1001 0025577  68.7549 291.6350 14.19693258871412
Epoch: 2025-10-21T04:22Z
TLE epoch observation values (Epoch: 2025-10-21T04:22:43.495Z)
Latitude
-0.00005°
Longitude
101.5448°
Altitude
822.493 km
Speed
7.445 km/s
True Right ascension
13h 08m 24s
True Declination
0° 00' 00"
Sunlit
Object was in daylight at epoch
Visualization orbit readout
Latitude
Unknown
Longitude
Unknown
Altitude
Unknown
Speed
Unknown
Apparent Right ascension
Unknown
Apparent Declination
Unknown
Sunlit
N/A
Visualization observer readout
Local Sidereal Time
16:36:40
Azimuth
Unknown
Elevation
Unknown
Doppler factor
Unknown
Orbital elements
Apogee altitude
842.055 km
Perigee altitude
805.215 km
Semi-major axis
7,201.772 km
Eccentricity
0.00256
Inclination
100.3425°
RAAN
197.1001°
Arg. of periapsis
68.7549°
True anomaly
291.36224°
Mean anomaly
291.635°
Eccentric anomaly
291.49865°
Mean motion
3.55127 °/min
Orbital period
101.37 mins
BSTAR
0.0071763

Documentation

Showing up to 5 results
|